Orangeburg, SC

1:16 PM EST on November 21, 2017 (GMT -0500)
Orangeburg Municipal

Weather History for KOGB - June, 2014

Change the Weather History Date:

Tuesday, June 17, 2014

  Actual Average Record
Temperature  
Mean Temperature 81 °F 79 °F  
Max Temperature 92 °F 89 °F 103 °F (1981)
Min Temperature 69 °F 68 °F 52 °F (1979)
Degree Days  
Heating Degree Days 0 0  
Month to date heating degree days 0 0  
Since 1 June heating degree days 0 0  
Since 1 July heating degree days 2334 2332  
Cooling Degree Days 16 14  
Month to date cooling degree days 231 207  
Year to date cooling degree days 586 510  
Since 1 June cooling degree days 231 207  
Growing Degree Days 30 (Base 50)    
Moisture  
Dew Point 68 °F    
Average Humidity 73    
Maximum Humidity 97    
Minimum Humidity 38    
Precipitation  
Precipitation 0.00 in 0.19 in 1.10 in (1971)
Month to date precipitation 4.57 2.84  
Year to date precipitation 23.40 20.46  
Sea Level Pressure  
Sea Level Pressure 30.16 in    
Wind  
Wind Speed 4 mph (South)    
Max Wind Speed 12 mph    
Max Gust Speed 16 mph    
Visibility 7 miles    
Events Fog    
T = Trace of Precipitation, MM = Missing Value Source: NWS Daily Summary

Daily Weather History Graph

Daily Weather History Graph

Search for Another Location

Airport or City:

Trip Planner

Search our weather history database for the weather conditions in past years. The results will help you decide how hot, cold, wet, or windy it might be!

Date:

Astronomy

Jun. 17, 2014 Rise Set
Actual Time 6:13 AM EDT 8:35 PM EDT
Civil Twilight 5:44 AM EDT 9:04 PM EDT
Nautical Twilight 5:08 AM EDT 9:39 PM EDT
Astronomical Twilight 4:30 AM EDT 10:18 PM EDT
Moon No Moon Rise 11:12 AM EDT (6/17)
Length of Visible Light 15h 20m
Length of Day
14h 22m
Waning Gibbous, 73% of the Moon is Illuminated
Jun 17
Waning Gibbous
Jun 19
Last Quarter
Jun 27
New
Jul 5
First Quarter
Jul 12
Full

Hourly Weather History & Observations

Time (EDT) Temp. Heat Index Dew Point Humidity Pressure Visibility Wind Dir Wind Speed Gust Speed Precip Events Conditions
12:53 AM 73.9 °F - 70.0 °F 87% 30.17 in 10.0 mi SSW 3.5 mph - N/A   Clear
1:53 AM 73.9 °F - 70.0 °F 87% 30.15 in 10.0 mi South 3.5 mph - N/A   Clear
2:53 AM 72.0 °F - 69.1 °F 91% 30.14 in 6.0 mi Calm Calm - N/A   Clear
3:53 AM 71.1 °F - 68.0 °F 90% 30.14 in 6.0 mi Calm Calm - N/A   Clear
4:53 AM 71.1 °F - 68.0 °F 90% 30.14 in 5.0 mi SE 3.5 mph - N/A   Clear
5:53 AM 70.0 °F - 68.0 °F 93% 30.15 in 4.0 mi Calm Calm - N/A   Clear
6:38 AM 70.0 °F - 66.9 °F 90% 30.18 in 2.5 mi SSW 3.5 mph - N/A   Clear
6:40 AM 70.0 °F - 68.0 °F 93% 30.18 in 1.8 mi SSW 3.5 mph - N/A   Partly Cloudy
6:44 AM 70.0 °F - 68.0 °F 93% 30.18 in 1.0 mi Calm Calm - N/A   Mist
6:53 AM 70.0 °F - 68.0 °F 93% 30.17 in 1.8 mi Calm Calm - N/A   Mostly Cloudy
6:57 AM 70.0 °F - 68.0 °F 93% 30.18 in 0.8 mi Calm Calm - N/A   Mist
7:53 AM 71.1 °F - 70.0 °F 96% 30.19 in 0.2 mi Calm Calm - N/A Fog Fog
8:53 AM 73.9 °F - 72.0 °F 93% 30.19 in 1.2 mi WSW 4.6 mph - N/A   Overcast
8:57 AM 73.9 °F - 72.0 °F 93% 30.20 in 2.0 mi WSW 3.5 mph - N/A   Overcast
9:06 AM 73.9 °F - 73.0 °F 97% 30.20 in 5.0 mi SSW 3.5 mph - N/A   Overcast
9:26 AM 75.0 °F - 72.0 °F 90% 30.21 in 10.0 mi SW 5.8 mph - N/A   Scattered Clouds
9:53 AM 80.1 °F 83.6 °F 71.1 °F 74% 30.20 in 10.0 mi WSW 4.6 mph - N/A   Clear
10:53 AM 84.0 °F 88.4 °F 70.0 °F 63% 30.20 in 10.0 mi SW 5.8 mph - N/A   Clear
11:53 AM 86.0 °F 88.8 °F 66.9 °F 53% 30.20 in 10.0 mi Calm Calm - N/A   Clear
12:53 PM 89.1 °F 91.0 °F 64.9 °F 45% 30.18 in 10.0 mi West 3.5 mph - N/A   Clear
1:53 PM 89.1 °F 90.0 °F 63.0 °F 42% 30.16 in 10.0 mi SSE 4.6 mph - N/A   Clear
2:53 PM 90.0 °F 90.0 °F 61.0 °F 38% 30.14 in 10.0 mi Calm Calm - N/A   Clear
3:53 PM 91.0 °F 91.5 °F 62.1 °F 38% 30.12 in 10.0 mi SE 5.8 mph - N/A   Clear
4:53 PM 91.0 °F 92.6 °F 64.0 °F 41% 30.10 in 10.0 mi SSE 6.9 mph - N/A   Clear
5:53 PM 90.0 °F 91.3 °F 64.0 °F 42% 30.10 in 10.0 mi SE 9.2 mph - N/A   Clear
6:53 PM 89.1 °F 90.3 °F 64.0 °F 43% 30.10 in 10.0 mi South 5.8 mph - N/A   Clear
7:53 PM 86.0 °F 88.8 °F 66.9 °F 53% 30.12 in 10.0 mi South 3.5 mph - N/A   Clear
8:53 PM 82.0 °F 85.5 °F 69.1 °F 65% 30.13 in 10.0 mi SSE 6.9 mph - N/A   Clear
9:53 PM 79.0 °F - 66.9 °F 66% 30.15 in 10.0 mi South 4.6 mph - N/A   Clear
10:53 PM 77.0 °F - 66.0 °F 69% 30.16 in 10.0 mi South 6.9 mph - N/A   Clear
11:53 PM 73.9 °F - 66.0 °F 76% 30.15 in 10.0 mi South 4.6 mph - N/A   Clear